Retour au catalogue

DELTA 1 DEB

ActifSSO
NORAD 10869·DEBRIS·🇺🇸 United States

Lancé Jul 29, 1976 depuis Vandenberg Space Force Base

Loading…

Prochains Passages (prochaines 24 heures)

TLE

FraisSource: Space-Track

Époque: Sep 14, 2026, 07:19 UTC

1 10869U 76077CX  26257.30514358  .00000058  00000-0  74770-3 0  9993
2 10869 102.2847  30.8963 0026957 350.0739  39.2710 12.43476503272407

Suivez DELTA 1 DEB en temps réel avec AllMySat

Download on the App Store